Other Surface Observations
Issued by NWS Charleston, SC

Home | Current Version | Previous Version | Text Only | Print | Product List | Glossary On
Versions: 1 2 3 4 5 6 7 8 9 10 11 12 13 14 15 16 17 18 19 20 21 22 23 24 25 26 27 28 29 30 31 32 33 34 35 36 37 38 39 40 41 42 43 44 45 46 47 48 49 50
000
SXUS52 KCHS 010427
OSOCHS

MARINE OBSERVATIONS
NATIONAL WEATHER SERVICE CHARLESTON SC
1200 AM EDT WED JUL 01 2015

...DOWNTOWN CHARLESTON AND HARBOR...

CITY           SKY/WX    TMP DP  RH WIND       PRES   REMARKS
WATERFRONT PRK   N/A     75  71  87 VRB2      29.97F
FORT JOHNSON   NOT AVBL

...LAKE MOULTRIE...

CITY           SKY/WX    TMP DP  RH WIND       PRES   REMARKS
PINOPOLIS      NOT AVBL

...LAKE AND SUPPLEMENTAL COASTAL OBSERVATIONS...

STATION/POSITION TIME  TEMP    WIND        PRES    WAVE   SWELL
                       AIR SEA DIR/SP/G            HT/PER HT/PER/DIR
                 (UTC) (F)     (DEG/KT/KT) (MB)    (FT/S) (FT/S/D)
FORT PULASKI     0400   76 84  230/  4/  6 1016.9S
SAPELO ISLAND    0400   76     210/  8     1017.0S
UPR LAKE MARION  NOT AVBL
WINYAH BAY       0300   75     190/  4     1015.0R
LAKE MURRAY      0400   75     230/  8/ 13 1014.6S
ACE BASIN NERRS  NOT AVBL


...C-MAN AND BUOY OBSERVATIONS...

STATION/POSITION TIME  TEMP    WIND        PRES    WAVE   SWELL
                       AIR SEA DIR/SP/G            HT/PER HT/PER/DIR
                 (UTC) (F)     (DEG/KT/KT) (MB)    (FT/S) (FT/S/D)
BUOY 41004       0350   82 83  240/ 16/ 17 1015.4F   4/ 5   2/ 9
BUOY 41008       0350   78 79  210/ 10/ 12 1016.7F   2/ 9   2/150/ 9
FOLLY BEACH CMAN 0400   75     250/  4/  6 1016.1F
CAPERS NS BUOY   0308   80     250/ 14/ 17 1016.2R
FRIPP NS BUOY    0300   80     240/ 10/ 12 1016.1R
5E ST. MARYS GA  0321      78                N/A     1/ 9


STATION/POSITION TIME  TEMP    WIND        PRES    WAVE   SWELL
                       AIR SEA DIR/SP/G            HT/PER HT/PER/DIR
                 (UTC) (F)     (DEG/KT/KT) (MB)    (FT/S) (FT/S/D)
FRYING PAN BUOY  0350   82 80  210/ 17/ 19 1015.9R   4/ 5   2/120/ 8
BUOY 41025       0350   82 81  230/ 23/ 29 1014.5S   5/ 6   2/230/12
CAPE LOOKOUT NC  0400   80     220/ 13/ 18 1014.9R
BUOY 41002       0350   82 80  240/ 17/ 19 1018.8R   6/ 7   3/170/ 8
BUOY 41010       0320   80 84  260/  6/  8 1020.9R
ST AUGUSTINE FL  0400   75 74  230/  4/  5 1019.9R

$$



USA.gov is the U.S. government's official web portal to all federal, state and local government web resources and services.